Regional Weather Roundup
Issued by NWS Green Bay, WI

Home | Current Version | Previous Version | Graphics & Text | Print | Product List | Glossary Off
Versions: 1 2 3 4 5 6 7 8 9 10 11 12 13 14 15 16 17 18 19 20 21 22 23 24 25 26 27 28 29 30 31 32 33 34 35 36 37 38 39 40 41 42 43 44 45 46 47 48 49 50

000
ASUS43 KGRB 222111
RWRGRB

NORTH-CENTRAL AND NORTHEAST WISCONSIN REGIONAL WEATHER ROUNDUP
NATIONAL WEATHER SERVICE GREEN BAY WI
400 PM CDT TUE MAY 22 2018

WIZ005-009-010>012-018-019-222200-
NORTH CENTRAL WISCONSIN

CITY           SKY/WX    TMP DP  RH WIND       PRES   REMARKS
IRONWOOD       FAIR      74  46  36 VRB6      30.02F
MANITOWISH WTR CLOUDY    74  52  45 W6        30.02F
ARBOR VITAE    PTSUNNY   77  52  41 CALM      30.02S
EAGLE RIVER    FAIR      76  41  28 W10       30.01S
LAND O LAKES   PTSUNNY   77  41  27 W3        30.02F
RHINELANDER    PTSUNNY   78  50  37 SW9       30.02F
PHILLIPS       PTSUNNY   73  56  56 W6        30.03S
ANTIGO         PTSUNNY   72  55  55 W6        30.03F
TOMAHAWK       CLOUDY    73  52  48 CALM      30.03F
MERRILL        PTSUNNY   74  57  55 W7        30.03F
$$

WIZ013-073-222200-
NORTHEAST WISCONSIN

CITY           SKY/WX    TMP DP  RH WIND       PRES   REMARKS
IRON MOUNTAIN  FAIR      80  36  20 MISG      29.97F
MARINETTE      FAIR      70  51  51 SE15      30.01F
OCONTO         FAIR      71  55  56 SE9       30.01
$$

WIZ017-030-035>037-045-222200-
CENTRAL WISCONSIN

CITY           SKY/WX    TMP DP  RH WIND       PRES   REMARKS
MEDFORD        PTSUNNY   71  55  57 CALM      30.03F
WAUSAU         FAIR      70  56  61 SW6       30.02F
MOSINEE        MOSUNNY   70  57  64 SW5       30.05F
MARSHFIELD     FAIR      69  57  65 SW6       30.04F
WISC RAPIDS    FAIR      69  57  65 SW8       30.06F
STEVENS POINT  FAIR      70  55  57 SW5       30.04F
WAUPACA        CLOUDY    74  56  53 SW5       30.03F
SHAWANO        FAIR      75  56  51 SW5       30.01F
CLINTONVILLE   FAIR      74  54  50 SW5       30.02F
WAUTOMA        FAIR      70  58  65 VRB5      30.05S
$$

WIZ038-039-048-051-222200-
FOX VALLEY

CITY           SKY/WX    TMP DP  RH WIND       PRES   REMARKS
NWS GREEN BAY  PTSUNNY   73  58  59 CALM      30.02F
APPLETON       PTSUNNY   72  54  53 W6        30.02F
OSHKOSH        PTSUNNY   68  58  70 CALM      30.04F
FOND DU LAC    PTSUNNY   68  57  68 W5        30.05F
$$

WIZ022-050-052-222200-
EAST CENTRAL WISCONSIN

CITY           SKY/WX    TMP DP  RH WIND       PRES   REMARKS
EPHRAIM        FAIR      69  53  58 S7        30.01F
WASHINGTON ISL FAIR      60  50  69 S6        30.00F
STURGEON BAY   FAIR      69  50  50 CALM      30.03F
MANITOWOC      FAIR      64  54  69 SE6       30.04F
SHEBOYGAN      FAIR      69  57  65 VRB3      30.03F
$$

LMZ563-521-522-541>543-222200-
LAKESHORE

STATION/POSITION TIME  TEMP    WIND        PRES    VSBY  WAVE
                       AIR SEA DIR/SP/G                  HT/PER
                 (UTC) (F)     (DEG/KT/KT) (MB)    (MI)  (FT/S)
SHEBOYGAN LKSHOR 2100   50     140/  7/  7 1017.5F
KEWAUNEE LKSHORE 2048   52     160/  5/  7 1016.7S
NORTHPORT PIER   2040   59     140/  4/  5 1016.3F
N MID LAKE BUOY  2050   41 38  200/  6/  8 1016.5F         0
SISTER BAY LKSHO 2057   58     340/  7/  8   N/A
MENOMINEE LKSHOR 2048   61     170/  9/ 12 1016.0F
$$



USA.gov is the U.S. government's official web portal to all federal, state and local government web resources and services.